This demonstration page uses our WeatherBlox Daily Observations layout. Learn more.

Left ArrowRight Arrow

53.62937, 11.41316

Hourly Observations for June 29, 2015

Temp ( °F °C ) Dew Point ( °F °C ) Humidity (%) Winds ( mph kmh ) Pressure ( in mb ) Visibility ( mi km ) Precip ( " mm )
6:20 am 06:20 Mostly Sunny 59 15 54 12 82 82 VRB 2 4 30.09 1019 7 11 N/A
6:50 am 06:50 Mostly Sunny 61 16 55 13 83 83 E 5 7 30.12 1020 7 11 N/A
7:20 am 07:20 Mostly Sunny 61 16 54 12 77 77 ESE 5 7 30.12 1020 7 11 N/A
7:50 am 07:50 Mostly Sunny 63 17 55 13 77 77 VRB 2 4 30.12 1020 7 11 N/A
8:20 am 08:20 Mostly Sunny 63 17 55 13 77 77 SE 6 9 30.12 1020 7 11 N/A
8:50 am 08:50 Mostly Sunny 64 18 55 13 73 73 SE 5 7 30.09 1019 7 11 N/A
9:20 am 09:20 Mostly Sunny 66 19 54 12 64 64 SSE 9 15 30.09 1019 7 11 N/A
9:50 am 09:50 Mostly Sunny 68 20 54 12 60 60 S 13 20 30.09 1019 7 11 N/A
10:20 am 10:20 Mostly Sunny 70 21 54 12 57 57 SSW 13 20 30.09 1019 7 11 N/A
10:50 am 10:50 Mostly Sunny 72 22 55 13 57 57 S 9 15 30.09 1019 7 11 N/A
11:20 am 11:20 Mostly Sunny 73 23 55 13 53 53 SSW 10 17 30.09 1019 7 11 N/A
11:50 am 11:50 Mostly Sunny 75 24 55 13 50 50 SW 9 15 30.09 1019 7 11 N/A
12:20 pm 12:20 Mostly Sunny 73 23 55 13 53 53 SW 9 15 30.09 1019 7 11 N/A
12:50 pm 12:50 Mostly Sunny 75 24 54 12 47 47 WSW 10 17 30.09 1019 7 11 N/A
1:20 pm 13:20 Mostly Sunny 73 23 54 12 50 50 W 10 17 30.09 1019 7 11 N/A
1:50 pm 13:50 Mostly Sunny 79 26 55 13 45 45 WNW 12 19 30.09 1019 7 11 N/A
2:20 pm 14:20 Mostly Sunny 75 24 52 11 44 44 W 13 20 30.09 1019 7 11 N/A
2:50 pm 14:50 Mostly Sunny 79 26 54 12 42 42 W 14 22 30.06 1018 7 11 N/A
3:20 pm 15:20 Mostly Sunny 77 25 54 12 44 44 W 10 17 30.09 1019 7 11 N/A
3:50 pm 15:50 Mostly Sunny 77 25 54 12 44 44 W 13 20 30.09 1019 7 11 N/A
4:20 pm 16:20 Mostly Sunny 77 25 54 12 44 44 WNW 10 17 30.09 1019 7 11 N/A
4:50 pm 16:50 Mostly Sunny 77 25 54 12 44 44 NW 14 22 30.09 1019 7 11 N/A
5:20 pm 17:20 Mostly Sunny 77 25 54 12 44 44 NW 12 19 30.09 1019 7 11 N/A
5:50 pm 17:50 Mostly Sunny 77 25 54 12 44 44 WNW 8 13 30.09 1019 7 11 N/A
6:20 pm 18:20 Mostly Sunny 77 25 50 10 39 39 WNW 9 15 30.09 1019 7 11 N/A
6:50 pm 18:50 Mostly Sunny 75 24 55 13 50 50 N 5 7 30.09 1019 7 11 N/A

Powered by AerisWeather